[[{"header":{"parameterUnit":"m.s-1","parameterCategory":1,"la1":30.2992,"la2":30.254,"lo1":-89.0895,"lo2":-89.0443,"dy":0.0025,"dx":0.0025,"nx":19,"ny":19,"refTime":"2026-04-05T09:00:00:Z","depth":0,"parameterNumber":2,"parameterNumberName":"U-component_of_WINDS"},"data":[0,0,0,0.3461,0.3458,0.3309,0.3309,0.3133,0.3132,0,0,0,0,0,0,0,0,0,0,0,0.3517,0.3516,0.3461,0.3458,0.3309,0.3309,0.3134,0.3132,0,0,0,0,0,0,0,0,0,0,0,0.3517,0.3516,0.3516,0.3457,0.331,0.3309,0.3134,0.324,0,0,0,0,0,0,0,0,0,0,0.3381,0.3446,0.3517,0.3516,0.3456,0.331,0.3309,0.3245,0.3233,0.3208,0,0.3192,0,0.316,0.3122,0.3121,0,0,0,0.3447,0.3456,0.3405,0.3515,0.3455,0.331,0.3373,0.3238,0.3225,0.3193,0.3189,0.3182,0.3157,0.3121,0.312,0.3015,0.3015,0,0,0.3456,0.3496,0.3414,0.3397,0.3425,0.3378,0.3369,0.323,0.3227,0.3189,0.3178,0.3154,0.312,0.3118,0.3015,0.3015,0,0,0,0.3486,0.3502,0.3454,0.3405,0.3378,0.3374,0.3363,0.3233,0.3215,0.3176,0.3152,0.3119,0.3117,0.3015,0.3015,0.3056,0,0,0,0.349,0.352,0.3459,0.3482,0.3381,0.3304,0.337,0.3224,0.3207,0.3153,0.3119,0.3115,0.3015,0.3015,0.3054,0.3067,0,0,0,0.3522,0.3523,0.3507,0.3484,0.3422,0.3306,0.3279,0.322,0.3193,0.3121,0.3115,0.3015,0.3015,0.3053,0.3066,0.3052,0,0,0,0.3567,0.3543,0.3508,0.3471,0.3424,0.3333,0.3279,0.3208,0.3151,0.3118,0.3015,0.3015,0.3053,0.3064,0.3051,0.3048,0.3051,0,0,0.3559,0.3544,0.3519,0.3483,0.3409,0.3352,0.3282,0.319,0.3144,0.306,0.3057,0.3055,0.3065,0.3052,0.3052,0.3054,0,0,0,0.353,0.3513,0.3484,0.3433,0.3364,0.3305,0.3219,0.3185,0.3112,0.311,0.3045,0.305,0.304,0.3036,0.3038,0.3027,0.3016,0.3016,0.3016,0.3577,0.3522,0.3476,0.3404,0.3354,0.3267,0.3221,0.3158,0.3115,0.3101,0.3076,0.3083,0.308,0.3082,0.307,0.3069,0.3069,0.307,0.307,0.356,0.3526,0.3471,0.3408,0.3349,0.3293,0.3206,0.3178,0.3116,0.3097,0.3086,0.3071,0.3086,0.3073,0.3072,0.3072,0.3071,0.3071,0.3071,0.3584,0.3559,0.3519,0.3439,0.3383,0.3308,0.3252,0.3199,0.3148,0.3137,0.3104,0.3103,0.3095,0.3125,0.3125,0.3125,0.3125,0.3125,0.3125,0.3626,0.3579,0.354,0.3465,0.3425,0.3365,0.3276,0.3233,0.3172,0.3138,0.3137,0.3095,0.3099,0.3101,0.3125,0.3125,0.3125,0.3125,0.3125,0.3629,0.362,0.356,0.352,0.3426,0.3373,0.3306,0.3225,0.3182,0.3155,0.3115,0.3126,0.3105,0.3103,0.3104,0.3128,0.3128,0.3128,0.3128,0.365,0.3635,0.3561,0.35,0.3435,0.3368,0.3298,0.3227,0.3152,0.3121,0.311,0.3107,0.3107,0.3086,0.3084,0.3084,0.3102,0.3102,0.3102,0.3648,0.3624,0.3577,0.3507,0.3429,0.3363,0.3294,0.3224,0.3136,0.31,0.3096,0.3097,0.3091,0.3093,0.3057,0.3055,0.3055,0,0]},{"header":{"parameterUnit":"m.s-1","parameterCategory":1,"la1":30.2992,"la2":30.254,"lo1":-89.0895,"lo2":-89.0443,"dy":0.0025,"dx":0.0025,"nx":19,"ny":19,"refTime":"2026-04-05T09:00:00:Z","depth":0,"parameterNumber":3,"parameterNumberName":"V-component_of_WINDS"},"data":[0,0,0,4.7553,4.756,4.7929,4.7931,4.8367,4.837,0,0,0,0,0,0,0,0,0,0,0,4.7423,4.7426,4.7552,4.7561,4.7929,4.7931,4.8366,4.837,0,0,0,0,0,0,0,0,0,0,0,4.7422,4.7425,4.7428,4.7562,4.7929,4.7931,4.8365,4.8099,0,0,0,0,0,0,0,0,0,0,4.7747,4.7608,4.7424,4.7428,4.7564,4.7928,4.7931,4.8087,4.8116,4.8185,0,4.8242,0,4.8313,4.8397,4.8399,0,0,0,4.7576,4.7584,4.7702,4.7428,4.7567,4.7928,4.7767,4.8104,4.8136,4.8223,4.8248,4.8265,4.832,4.84,4.8402,4.8753,4.8754,0,0,4.7555,4.7478,4.7679,4.7722,4.7665,4.7755,4.7778,4.8124,4.8146,4.825,4.8276,4.8327,4.8403,4.8406,4.8752,4.8753,0,0,0,4.7487,4.7463,4.7574,4.7703,4.7772,4.7766,4.7792,4.8131,4.8173,4.8281,4.8332,4.8405,4.841,4.8751,4.8752,4.8725,0,0,0,4.7475,4.7424,4.7564,4.752,4.7765,4.7957,4.779,4.8149,4.8191,4.833,4.8405,4.8414,4.875,4.8752,4.8723,4.8724,0,0,0,4.7406,4.7416,4.7462,4.7516,4.7672,4.7953,4.8016,4.816,4.8221,4.8399,4.8415,4.875,4.8751,4.8722,4.8722,4.8793,0,0,0,4.7309,4.7431,4.746,4.7617,4.7668,4.7933,4.8014,4.8216,4.8365,4.8407,4.875,4.8752,4.8722,4.8721,4.8791,4.8839,4.8852,0,0,4.742,4.7442,4.754,4.7577,4.7817,4.7883,4.812,4.8329,4.8415,4.8635,4.8645,4.8724,4.8722,4.8793,4.8952,4.8961,0,0,0,4.7549,4.7618,4.7699,4.7838,4.8002,4.8142,4.8323,4.84,4.8591,4.8513,4.8772,4.8773,4.8818,4.8844,4.8852,4.8895,4.8761,4.8761,4.8761,4.7594,4.77,4.7869,4.8019,4.8153,4.8339,4.8457,4.8593,4.866,4.8719,4.8784,4.8868,4.8896,4.8902,4.8946,4.8819,4.8819,4.8819,4.8819,4.7765,4.788,4.7967,4.8163,4.8273,4.8438,4.8622,4.8664,4.8833,4.8827,4.8872,4.8856,4.891,4.8953,4.8818,4.8818,4.8818,4.8818,4.8818,4.7805,4.7879,4.7972,4.8185,4.8337,4.8485,4.8643,4.8739,4.8829,4.8874,4.8953,4.8954,4.8965,4.8905,4.8905,4.8906,4.8906,4.8906,4.8906,4.7809,4.7916,4.8039,4.8223,4.8326,4.8472,4.8661,4.8764,4.8902,4.8959,4.896,4.9019,4.8896,4.8862,4.8911,4.891,4.891,4.8909,4.8909,4.7942,4.7928,4.8116,4.8219,4.8444,4.8588,4.8709,4.891,4.9009,4.9084,4.9135,4.9029,4.9057,4.9051,4.9024,4.9113,4.9113,4.9113,4.9113,4.7975,4.7999,4.8215,4.8372,4.8538,4.8666,4.8875,4.9023,4.9173,4.9241,4.9243,4.9215,4.9204,4.9239,4.9229,4.9205,4.9338,4.9338,4.9339,4.8062,4.8107,4.8267,4.8416,4.8599,4.8753,4.8953,4.9129,4.9297,4.935,4.9296,4.9286,4.9243,4.9223,4.9272,4.9255,4.9212,0,0]}]]